カタログに戻る

PSLV R/B

運用中HEO
NORAD 41242·ROCKET BODY·🇮🇳 India

打ち上げ Jan 20, 2016 から Satish Dhawan Space Centre

Loading…

次のパス (今後24時間)

TLE

最新Source: Space-Track

元期: Sep 14, 2026, 07:25 UTC

1 41242U 16003B   26257.30965262  .00001440  00000-0  60303-3 0  9992
2 41242  19.1423   0.3188 5970266 275.8740  23.1443  4.04539250154349

AllMySatでPSLV R/Bをリアルタイム追跡

Download on the App Store